Huntsville, TX

9:42 PM CST on December 13, 2017 (GMT -0600)
Huntsville Municipal

Weather History for KUTS - January, 2014

Change the Weather History Date:

Sunday, January 12, 2014

  Actual Average (KCXO) Record (KCXO)
Temperature  
Mean Temperature 56 °F -  
Max Temperature 69 °F 59 °F 80 °F (2017)
Min Temperature 43 °F 39 °F 23 °F (2011)
Degree Days  
Heating Degree Days 9    
Growing Degree Days 6 (Base 50)    
Moisture  
Dew Point 39 °F    
Average Humidity 52    
Maximum Humidity 81    
Minimum Humidity 25    
Precipitation  
Precipitation 0.01 in - - ()
Sea Level Pressure  
Sea Level Pressure 30.03 in    
Wind  
Wind Speed 7 mph (South)    
Max Wind Speed 20 mph    
Max Gust Speed 26 mph    
Visibility 10 miles    
Events      
Averages and records for this station are not official NWS values.
T = Trace of Precipitation, MM = Missing Value Source: NWS Daily Summary

Daily Weather History Graph

Daily Weather History Graph

Search for Another Location

Airport or City:

Trip Planner

Search our weather history database for the weather conditions in past years. The results will help you decide how hot, cold, wet, or windy it might be!

Date:

Astronomy

Jan. 12, 2014 Rise Set
Actual Time 7:20 AM CST 5:40 PM CST
Civil Twilight 6:54 AM CST 6:07 PM CST
Nautical Twilight 6:25 AM CST 6:36 PM CST
Astronomical Twilight 5:55 AM CST 7:05 PM CST
Moon 3:08 PM CST (1/12) 4:22 AM CST (1/12)
Length of Visible Light 11h 12m
Length of Day
10h 19m
Waxing Gibbous, 90% of the Moon is Illuminated
Jan 12
Waxing Gibbous
Jan 15
Full
Jan 23
Last Quarter
Jan 30
New
Feb 6
First Quarter

Hourly Weather History & Observations

Time (CST) Temp. Windchill Dew Point Humidity Pressure Visibility Wind Dir Wind Speed Gust Speed Precip Events Conditions
12:53 AM 44.1 °F - 36.0 °F 73% 30.10 in 10.0 mi Calm Calm - N/A   Clear
1:53 AM 43.0 °F - 35.1 °F 74% 30.10 in 10.0 mi Calm Calm - N/A   Clear
2:53 AM 46.0 °F 43.9 °F 33.1 °F 61% 30.09 in 10.0 mi South 4.6 mph - N/A   Clear
3:53 AM 46.0 °F 42.5 °F 33.1 °F 61% 30.09 in 10.0 mi South 6.9 mph - N/A   Clear
4:53 AM 45.0 °F 41.2 °F 33.1 °F 63% 30.09 in 10.0 mi South 6.9 mph - N/A   Clear
5:53 AM 46.9 °F - 32.0 °F 56% 30.09 in 10.0 mi South 4.6 mph - N/A   Clear
6:53 AM 46.9 °F - 30.9 °F 54% 30.09 in 10.0 mi South 5.8 mph - N/A   Clear
7:53 AM 48.9 °F - 32.0 °F 52% 30.10 in 10.0 mi South 6.9 mph - N/A   Clear
8:53 AM 55.0 °F - 34.0 °F 45% 30.11 in 10.0 mi South 9.2 mph - N/A   Clear
9:53 AM 61.0 °F - 34.0 °F 36% 30.11 in 10.0 mi South 10.4 mph 16.1 mph N/A   Clear
10:53 AM 64.9 °F - 33.1 °F 31% 30.10 in 10.0 mi South 13.8 mph 21.9 mph N/A   Clear
11:53 AM 69.1 °F - 32.0 °F 25% 30.07 in 10.0 mi South 19.6 mph 26.5 mph N/A   Clear
12:53 PM 68.0 °F - 32.0 °F 26% 30.02 in 10.0 mi South 15.0 mph 21.9 mph N/A   Clear
1:53 PM 68.0 °F - 32.0 °F 26% 30.01 in 10.0 mi South 15.0 mph 26.5 mph N/A   Clear
2:53 PM 69.1 °F - 35.1 °F 29% 29.99 in 10.0 mi South 11.5 mph 20.7 mph N/A   Clear
3:53 PM 68.0 °F - 36.0 °F 31% 29.98 in 10.0 mi South 8.1 mph 16.1 mph N/A   Mostly Cloudy
4:53 PM 66.9 °F - 42.1 °F 40% 29.97 in 10.0 mi South 9.2 mph - N/A   Partly Cloudy
5:53 PM 63.0 °F - 48.0 °F 58% 29.96 in 10.0 mi SSE 4.6 mph - 0.01 in   Mostly Cloudy
6:53 PM 64.0 °F - 48.9 °F 58% 29.94 in 10.0 mi SE 4.6 mph - N/A   Scattered Clouds
7:53 PM 63.0 °F - 48.9 °F 60% 29.96 in 10.0 mi South 10.4 mph - N/A   Scattered Clouds
8:53 PM 63.0 °F - 51.1 °F 65% 29.96 in 10.0 mi South 11.5 mph 25.3 mph N/A   Partly Cloudy
9:53 PM 63.0 °F - 52.0 °F 67% 29.94 in 10.0 mi South 11.5 mph 21.9 mph N/A   Clear
10:53 PM 62.1 °F - 53.1 °F 72% 29.93 in 10.0 mi South 9.2 mph 16.1 mph N/A   Mostly Cloudy
11:53 PM 61.0 °F - 55.0 °F 81% 29.92 in 10.0 mi South 11.5 mph - N/A   Mostly Cloudy